| time (UTC) | temp F | wind direction | speed knots | gust knots | rain 1hr in | rain 24hr in | rain mn in | humidity % | barometer mb |
| 20260504041823 | 53 | 169 | 0.0 | 1.7 | 0.00 | 0.00 | 0.00 | 69 | 1017.6 |
| 20260504041319 | 53 | 189 | 0.0 | 1.7 | 0.00 | 0.00 | 0.00 | 68 | 1017.7 |
| 20260504040815 | 54 | 176 | 0.0 | 1.7 | 0.00 | 0.00 | 0.00 | 70 | 1017.7 |
| 20260504040313 | 54 | 218 | 1.7 | 3.5 | 0.00 | 0.00 | 0.00 | 68 | 1017.6 |
| 20260504035809 | 54 | 206 | 0.0 | 1.7 | 0.00 | 0.00 | 0.00 | 68 | 1017.5 |
| 20260504035306 | 54 | 138 | 0.0 | 1.7 | 0.00 | 0.00 | 0.00 | 70 | 1017.9 |
| 20260504034803 | 54 | 196 | 1.7 | 2.6 | 0.00 | 0.00 | 0.00 | 70 | 1017.8 |
| 20260504034301 | 53 | 203 | 0.0 | 2.6 | 0.00 | 0.00 | 0.00 | 70 | 1017.5 |
| 20260504033758 | 53 | 209 | 0.0 | 1.7 | 0.00 | 0.00 | 0.00 | 72 | 1017.6 |
| 20260504033255 | 53 | 202 | 0.0 | 2.6 | 0.00 | 0.00 | 0.00 | 73 | 1017.6 |
| 20260504032752 | 53 | 149 | 0.0 | 0.9 | 0.00 | 0.00 | 0.00 | 75 | 1017.4 |
| 20260504032249 | 54 | 210 | 0.0 | 1.7 | 0.00 | 0.00 | 0.00 | 73 | 1017.3 |
| 20260504031745 | 53 | 160 | 0.0 | 1.7 | 0.00 | 0.00 | 0.00 | 70 | 1017.6 |
| 20260504031243 | 53 | 74 | 0.0 | 1.7 | 0.00 | 0.00 | 0.00 | 74 | 1017.4 |
| 20260504030738 | 53 | 211 | 0.0 | 1.7 | 0.00 | 0.00 | 0.00 | 70 | 1017.4 |
| 20260504030236 | 53 | 231 | 2.6 | 3.5 | 0.00 | 0.00 | 0.00 | 71 | 1017.3 |
| 20260504025732 | 54 | 324 | 0.0 | 3.5 | 0.00 | 0.00 | 0.00 | 71 | 1017.2 |
| 20260504025229 | 53 | 155 | 0.0 | 1.7 | 0.00 | 0.00 | 0.00 | 72 | 1017.1 |
| 20260504024727 | 53 | 213 | 0.0 | 2.6 | 0.00 | 0.00 | 0.00 | 73 | 1017.0 |
| 20260504024223 | 53 | 112 | 0.0 | 1.7 | 0.00 | 0.00 | 0.00 | 76 | 1017.2 |
| 20260504023720 | 52 | 127 | 0.9 | 2.6 | 0.00 | 0.00 | 0.00 | 77 | 1017.0 |
| 20260504023216 | 53 | 120 | 0.0 | 1.7 | 0.00 | 0.00 | 0.00 | 75 | 1017.1 |
| 20260504022712 | 53 | 210 | 0.0 | 1.7 | 0.00 | 0.00 | 0.00 | 74 | 1017.1 |
| 20260504022208 | 53 | 312 | 0.0 | 0.9 | 0.00 | 0.00 | 0.00 | 76 | 1017.0 |
| 20260504021706 | 53 | 180 | 0.0 | 1.7 | 0.00 | 0.00 | 0.00 | 74 | 1017.1 |
| 20260504021203 | 52 | 203 | 0.0 | 0.9 | 0.00 | 0.00 | 0.00 | 76 | 1017.0 |
| 20260504020700 | 53 | 149 | 0.0 | 0.9 | 0.00 | 0.00 | 0.00 | 76 | 1017.1 |
| 20260504020155 | 53 | 241 | 0.0 | 1.7 | 0.00 | 0.00 | 0.00 | 73 | 1017.1 |
| 20260504015652 | 53 | 219 | 0.0 | 2.6 | 0.00 | 0.00 | 0.00 | 73 | 1016.9 |
| 20260504015149 | 53 | 203 | 0.0 | 0.0 | 0.00 | 0.00 | 0.00 | 73 | 1017.0 |
| 20260504014644 | 53 | 224 | 0.0 | 1.7 | 0.00 | 0.00 | 0.00 | 75 | 1016.8 |
| 20260504014142 | 53 | 176 | 0.0 | 1.7 | 0.00 | 0.00 | 0.00 | 75 | 1017.0 |
| 20260504013639 | 53 | 150 | 0.0 | 0.9 | 0.00 | 0.00 | 0.00 | 74 | 1017.0 |
| 20260504013136 | 54 | 202 | 0.9 | 1.7 | 0.00 | 0.00 | 0.00 | 74 | 1016.9 |
| 20260504012633 | 54 | 226 | 0.0 | 2.6 | 0.00 | 0.00 | 0.00 | 73 | 1016.9 |
| 20260504012131 | 54 | 203 | 0.0 | 1.7 | 0.00 | 0.00 | 0.00 | 72 | 1016.7 |
| 20260504011628 | 54 | 198 | 0.0 | 1.7 | 0.00 | 0.00 | 0.00 | 72 | 1016.6 |
| 20260504011124 | 55 | 228 | 1.7 | 1.7 | 0.00 | 0.00 | 0.00 | 72 | 1016.7 |
| 20260504010620 | 55 | 189 | 0.0 | 1.7 | 0.00 | 0.00 | 0.00 | 71 | 1016.6 |
| 20260504010116 | 55 | 198 | 0.0 | 1.7 | 0.00 | 0.00 | 0.00 | 72 | 1016.6 |
| 20260504005613 | 56 | 150 | 0.0 | 1.7 | 0.00 | 0.00 | 0.00 | 70 | 1016.6 |
| 20260504005110 | 56 | 227 | 0.0 | 1.7 | 0.00 | 0.00 | 0.00 | 69 | 1016.5 |
| 20260504004608 | 57 | 215 | 0.9 | 1.7 | 0.00 | 0.00 | 0.00 | 67 | 1016.6 |
| 20260504004105 | 57 | 230 | 0.0 | 0.9 | 0.00 | 0.00 | 0.00 | 65 | 1016.6 |
| 20260504003601 | 58 | 189 | 0.0 | 0.9 | 0.00 | 0.00 | 0.00 | 63 | 1016.5 |
| 20260504003058 | 59 | 144 | 0.0 | 0.0 | 0.00 | 0.00 | 0.00 | 65 | 1016.5 |
| 20260504002555 | 59 | 166 | 0.0 | 0.0 | 0.00 | 0.00 | 0.00 | 61 | 1016.6 |
| 20260504002053 | 60 | 166 | 0.0 | 0.9 | 0.00 | 0.00 | 0.00 | 60 | 1016.5 |
| 20260504001550 | 60 | 189 | 0.0 | 1.7 | 0.00 | 0.00 | 0.00 | 59 | 1016.4 |
| 20260504001046 | 61 | 317 | 0.0 | 0.0 | 0.00 | 0.00 | 0.00 | 59 | 1016.4 |
| 20260504000543 | 62 | 213 | 0.0 | 0.0 | 0.00 | 0.00 | 0.00 | 53 | 1016.4 |
| 20260504000041 | 62 | 189 | 0.0 | 0.0 | 0.00 | 0.00 | 0.00 | 52 | 1016.5 |
| 20260503235539 | 63 | 176 | 0.0 | 0.9 | 0.00 | 0.00 | 0.00 | 49 | 1016.5 |
| 20260503235035 | 66 | 343 | 0.0 | 1.7 | 0.00 | 0.00 | 0.00 | 50 | 1016.6 |
| 20260503234533 | 68 | 346 | 0.0 | 0.9 | 0.00 | 0.00 | 0.00 | 42 | 1016.4 |
| 20260503234031 | 67 | 266 | 0.0 | 2.6 | 0.00 | 0.00 | 0.00 | 46 | 1016.6 |
| 20260503233527 | 68 | 227 | 0.0 | 1.7 | 0.00 | 0.00 | 0.00 | 42 | 1016.5 |
| 20260503233023 | 69 | 292 | 0.9 | 1.7 | 0.00 | 0.00 | 0.00 | 40 | 1016.5 |
| 20260503232520 | 69 | 9 | 0.0 | 0.9 | 0.00 | 0.00 | 0.00 | 42 | 1016.5 |
| 20260503232018 | 68 | 343 | 0.0 | 1.7 | 0.00 | 0.00 | 0.00 | 42 | 1016.8 |
| 20260503231516 | 68 | 13 | 0.9 | 2.6 | 0.00 | 0.00 | 0.00 | 40 | 1016.8 |
| 20260503231012 | 69 | 258 | 0.0 | 1.7 | 0.00 | 0.00 | 0.00 | 39 | 1016.8 |
| 20260503230509 | 69 | 333 | 0.0 | 2.6 | 0.00 | 0.00 | 0.00 | 37 | 1016.8 |
| 20260503230007 | 70 | 328 | 0.0 | 2.6 | 0.00 | 0.00 | 0.00 | 36 | 1016.7 |
| 20260503225503 | 69 | 255 | 0.0 | 3.5 | 0.00 | 0.00 | 0.00 | 38 | 1016.8 |
| 20260503224958 | 70 | 83 | 0.9 | 4.3 | 0.00 | 0.00 | 0.00 | 38 | 1016.7 |
| 20260503224455 | 70 | 302 | 0.0 | 1.7 | 0.00 | 0.00 | 0.00 | 35 | 1016.7 |
| 20260503223953 | 68 | 320 | 0.0 | 3.5 | 0.00 | 0.00 | 0.00 | 38 | 1016.8 |
| 20260503223451 | 69 | 25 | 3.5 | 5.2 | 0.00 | 0.00 | 0.00 | 37 | 1016.8 |
| 20260503222946 | 70 | 3 | 5.2 | 5.2 | 0.00 | 0.00 | 0.00 | 37 | 1016.9 |
| 20260503222445 | 70 | 244 | 0.0 | 2.6 | 0.00 | 0.00 | 0.00 | 38 | 1016.9 |
| 20260503221943 | 69 | 356 | 1.7 | 4.3 | 0.00 | 0.00 | 0.00 | 35 | 1016.7 |
| 20260503221441 | 71 | 68 | 2.6 | 4.3 | 0.00 | 0.00 | 0.00 | 38 | 1016.7 |
| 20260503220937 | 70 | 227 | 1.7 | 2.6 | 0.00 | 0.00 | 0.00 | 36 | 1016.8 |
| 20260503220434 | 71 | 64 | 1.7 | 2.6 | 0.00 | 0.00 | 0.00 | 38 | 1016.9 |
| 20260503215931 | 69 | 1 | 2.6 | 4.3 | 0.00 | 0.00 | 0.00 | 37 | 1016.8 |
| 20260503215428 | 69 | 26 | 1.7 | 4.3 | 0.00 | 0.00 | 0.00 | 36 | 1017.0 |
| 20260503214925 | 68 | 182 | 1.7 | 6.1 | 0.00 | 0.00 | 0.00 | 36 | 1017.0 |
| 20260503214423 | 68 | 260 | 0.9 | 2.6 | 0.00 | 0.00 | 0.00 | 35 | 1017.0 |
| 20260503213920 | 68 | 240 | 2.6 | 3.5 | 0.00 | 0.00 | 0.00 | 36 | 1016.9 |
| 20260503213418 | 67 | 70 | 2.6 | 4.3 | 0.00 | 0.00 | 0.00 | 37 | 1017.0 |
| 20260503212914 | 69 | 148 | 2.6 | 4.3 | 0.00 | 0.00 | 0.00 | 36 | 1017.2 |
| 20260503212412 | 69 | 18 | 0.0 | 5.2 | 0.00 | 0.00 | 0.00 | 37 | 1017.3 |
| 20260503211909 | 69 | 342 | 0.9 | 4.3 | 0.00 | 0.00 | 0.00 | 33 | 1017.3 |
| 20260503211406 | 69 | 40 | 2.6 | 3.5 | 0.00 | 0.00 | 0.00 | 33 | 1017.3 |
| 20260503210901 | 67 | 243 | 0.0 | 6.1 | 0.00 | 0.00 | 0.00 | 35 | 1017.5 |
| 20260503210358 | 68 | 246 | 2.6 | 2.6 | 0.00 | 0.00 | 0.00 | 32 | 1017.5 |
| 20260503205853 | 69 | 133 | 1.7 | 7.0 | 0.00 | 0.00 | 0.00 | 35 | 1017.7 |
| 20260503205350 | 68 | 352 | 1.7 | 5.2 | 0.00 | 0.00 | 0.00 | 39 | 1017.9 |
| 20260503204847 | 68 | 265 | 0.0 | 3.5 | 0.00 | 0.00 | 0.00 | 37 | 1017.6 |
| 20260503204344 | 66 | 166 | 0.0 | 6.1 | 0.00 | 0.00 | 0.00 | 40 | 1017.8 |
| 20260503203841 | 68 | 200 | 3.5 | 7.8 | 0.00 | 0.00 | 0.00 | 39 | 1017.8 |
| 20260503203338 | 69 | 351 | 0.0 | 4.3 | 0.00 | 0.00 | 0.00 | 37 | 1017.7 |
| 20260503202835 | 69 | 233 | 1.7 | 3.5 | 0.00 | 0.00 | 0.00 | 37 | 1018.3 |
| 20260503202333 | 67 | 107 | 1.7 | 8.7 | 0.00 | 0.00 | 0.00 | 42 | 1018.1 |
| 20260503201832 | 66 | 39 | 1.7 | 4.3 | 0.00 | 0.00 | 0.00 | 39 | 1018.3 |
| 20260503201328 | 66 | 256 | 2.6 | 7.0 | 0.00 | 0.00 | 0.00 | 40 | 1018.4 |
| 20260503200826 | 68 | 77 | 3.5 | 5.2 | 0.00 | 0.00 | 0.00 | 38 | 1018.5 |
| 20260503200321 | 67 | 324 | 0.0 | 4.3 | 0.00 | 0.00 | 0.00 | 38 | 1018.5 |
| 20260503195819 | 66 | 338 | 0.9 | 4.3 | 0.00 | 0.00 | 0.00 | 42 | 1018.5 |
| 20260503195315 | 65 | 346 | 2.6 | 6.1 | 0.00 | 0.00 | 0.00 | 38 | 1018.9 |
| 20260503194813 | 67 | 311 | 1.7 | 3.5 | 0.00 | 0.00 | 0.00 | 36 | 1018.9 |
| 20260503194308 | 66 | 327 | 0.0 | 4.3 | 0.00 | 0.00 | 0.00 | 38 | 1018.9 |
| 20260503193805 | 66 | 218 | 1.7 | 4.3 | 0.00 | 0.00 | 0.00 | 37 | 1018.8 |
| 20260503193301 | 65 | 234 | 2.6 | 5.2 | 0.00 | 0.00 | 0.00 | 42 | 1018.9 |
| 20260503192757 | 66 | 277 | 0.0 | 4.3 | 0.00 | 0.00 | 0.00 | 39 | 1019.3 |
| 20260503192252 | 66 | 255 | 4.3 | 6.1 | 0.00 | 0.00 | 0.00 | 39 | 1019.3 |
| 20260503191749 | 65 | 35 | 4.3 | 7.0 | 0.00 | 0.00 | 0.00 | 40 | 1019.5 |
| 20260503191246 | 66 | 239 | 4.3 | 7.0 | 0.00 | 0.00 | 0.00 | 39 | 1019.4 |
| 20260503190743 | 64 | 191 | 0.9 | 5.2 | 0.00 | 0.00 | 0.00 | 39 | 1019.6 |
| 20260503190239 | 67 | 311 | 1.7 | 3.5 | 0.00 | 0.00 | 0.00 | 40 | 1019.5 |
| 20260503185737 | 64 | 52 | 0.0 | 4.3 | 0.00 | 0.00 | 0.00 | 38 | 1019.7 |
| 20260503185232 | 64 | 247 | 0.0 | 2.6 | 0.00 | 0.00 | 0.00 | 40 | 1019.6 |
| 20260503184727 | 62 | 122 | 2.6 | 5.2 | 0.00 | 0.00 | 0.00 | 42 | 1019.7 |
| 20260503184224 | 62 | 196 | 0.9 | 8.7 | 0.00 | 0.00 | 0.00 | 40 | 1019.7 |
| 20260503183720 | 62 | 299 | 1.7 | 8.7 | 0.00 | 0.00 | 0.00 | 46 | 1019.9 |
| 20260503183217 | 65 | 4 | 4.3 | 6.1 | 0.00 | 0.00 | 0.00 | 40 | 1019.8 |
| 20260503182716 | 63 | 67 | 0.9 | 3.5 | 0.00 | 0.00 | 0.00 | 42 | 1019.8 |
| 20260503182214 | 61 | 24 | 5.2 | 7.0 | 0.00 | 0.00 | 0.00 | 43 | 1019.8 |
| 20260503181710 | 60 | 9 | 2.6 | 5.2 | 0.00 | 0.00 | 0.00 | 44 | 1020.1 |
| 20260503181207 | 62 | 321 | 0.0 | 3.5 | 0.00 | 0.00 | 0.00 | 45 | 1019.8 |
| 20260503180703 | 62 | 307 | 0.0 | 4.3 | 0.00 | 0.00 | 0.00 | 42 | 1020.0 |
| 20260503180202 | 62 | 16 | 1.7 | 6.1 | 0.00 | 0.00 | 0.00 | 43 | 1019.9 |
| 20260503175658 | 63 | 114 | 2.6 | 4.3 | 0.00 | 0.00 | 0.00 | 46 | 1020.2 |
| 20260503175156 | 61 | 21 | 3.5 | 5.2 | 0.00 | 0.00 | 0.00 | 47 | 1020.2 |
| 20260503174652 | 60 | 216 | 5.2 | 7.0 | 0.00 | 0.00 | 0.00 | 46 | 1020.2 |
| 20260503174150 | 59 | 163 | 1.7 | 2.6 | 0.00 | 0.00 | 0.00 | 46 | 1020.3 |
| 20260503173645 | 60 | 205 | 0.9 | 7.8 | 0.00 | 0.00 | 0.00 | 52 | 1020.7 |
| 20260503173141 | 60 | 62 | 0.0 | 8.7 | 0.00 | 0.00 | 0.00 | 47 | 1020.5 |
| 20260503172638 | 60 | 111 | 2.6 | 4.3 | 0.00 | 0.00 | 0.00 | 48 | 1020.5 |
| 20260503172136 | 59 | 84 | 0.9 | 4.3 | 0.00 | 0.00 | 0.00 | 44 | 1020.7 |
| 20260503171632 | 59 | 353 | 0.9 | 6.1 | 0.00 | 0.00 | 0.00 | 45 | 1020.7 |
| 20260503171129 | 60 | 155 | 0.9 | 4.3 | 0.00 | 0.00 | 0.00 | 47 | 1020.7 |
| 20260503170626 | 59 | 100 | 0.9 | 3.5 | 0.00 | 0.00 | 0.00 | 45 | 1020.7 |
| 20260503170123 | 59 | 112 | 1.7 | 7.0 | 0.00 | 0.00 | 0.00 | 47 | 1020.7 |
| 20260503150515 | 55 | 250 | 2.6 | 5.2 | 0.00 | 0.00 | 0.00 | 54 | 1021.8 |
| 20260503131408 | 50 | 161 | 3.5 | 6.1 | 0.00 | 0.00 | 0.00 | 78 | 1021.4 |
| 20260503130904 | 48 | 136 | 2.6 | 5.2 | 0.00 | 0.00 | 0.00 | 80 | 1021.2 |
| 20260503130402 | 48 | 151 | 4.3 | 5.2 | 0.00 | 0.00 | 0.00 | 83 | 1021.1 |
| 20260503110811 | 39 | 197 | 0.9 | 1.7 | 0.00 | 0.00 | 0.00 | 99 | 1020.4 |
| 20260503110308 | 40 | 196 | 0.9 | 2.6 | 0.00 | 0.00 | 0.00 | 99 | 1020.4 |
| 20260503100234 | 42 | 119 | 0.0 | 2.6 | 0.00 | 0.00 | 0.00 | 99 | 1019.6 |
| 20260503090154 | 41 | 124 | 1.7 | 2.6 | 0.00 | 0.00 | 0.00 | 99 | 1019.2 |
| 20260503081629 | 41 | 180 | 1.7 | 2.6 | 0.00 | 0.00 | 0.00 | 99 | 1018.8 |
| 20260503081126 | 41 | 164 | 0.9 | 2.6 | 0.00 | 0.00 | 0.00 | 98 | 1018.9 |
| 20260503080622 | 42 | 160 | 1.7 | 2.6 | 0.00 | 0.00 | 0.00 | 98 | 1018.8 |
| 20260503080119 | 42 | 129 | 0.9 | 1.7 | 0.00 | 0.00 | 0.00 | 98 | 1018.9 |
| 20260503072556 | 42 | 194 | 0.9 | 2.6 | 0.00 | 0.00 | 0.00 | 97 | 1018.7 |
| 20260503072053 | 42 | 159 | 1.7 | 2.6 | 0.00 | 0.00 | 0.00 | 97 | 1018.6 |
| 20260503071550 | 42 | 165 | 1.7 | 2.6 | 0.00 | 0.00 | 0.00 | 97 | 1018.4 |
| 20260503071047 | 42 | 162 | 1.7 | 3.5 | 0.00 | 0.00 | 0.00 | 97 | 1018.5 |
| 20260503070543 | 42 | 162 | 1.7 | 2.6 | 0.00 | 0.00 | 0.00 | 96 | 1018.5 |
| 20260503055003 | 44 | 109 | 0.0 | 1.7 | 0.00 | 0.00 | 0.00 | 92 | 1018.4 |
| 20260503054458 | 44 | 178 | 0.9 | 1.7 | 0.00 | 0.00 | 0.00 | 91 | 1018.5 |
| 20260503053956 | 44 | 185 | 1.7 | 2.6 | 0.00 | 0.00 | 0.00 | 90 | 1018.4 |
| 20260503053454 | 45 | 130 | 0.9 | 2.6 | 0.00 | 0.00 | 0.00 | 90 | 1018.3 |
| 20260503052950 | 45 | 173 | 1.7 | 2.6 | 0.00 | 0.00 | 0.00 | 89 | 1018.3 |
| 20260503052448 | 45 | 179 | 0.9 | 1.7 | 0.00 | 0.00 | 0.00 | 89 | 1018.4 |
| 20260503051944 | 45 | 186 | 0.9 | 2.6 | 0.00 | 0.00 | 0.00 | 89 | 1018.3 |
| 20260503051440 | 45 | 182 | 0.9 | 1.7 | 0.00 | 0.00 | 0.00 | 88 | 1018.3 |
| 20260503050937 | 46 | 164 | 1.7 | 2.6 | 0.00 | 0.00 | 0.00 | 87 | 1018.1 |
| 20260503050433 | 46 | 142 | 0.0 | 1.7 | 0.00 | 0.00 | 0.00 | 86 | 1018.0 |
| 20260503045931 | 46 | 150 | 0.9 | 2.6 | 0.00 | 0.00 | 0.00 | 85 | 1017.8 |
| 20260503045428 | 47 | 213 | 0.0 | 0.9 | 0.00 | 0.00 | 0.00 | 84 | 1018.0 |
| 20260503044925 | 46 | 129 | 0.0 | 1.7 | 0.00 | 0.00 | 0.00 | 84 | 1017.9 |
| 20260503044422 | 47 | 168 | 0.9 | 2.6 | 0.00 | 0.00 | 0.00 | 83 | 1017.8 |
| 20260503043919 | 47 | 194 | 1.7 | 1.7 | 0.00 | 0.00 | 0.00 | 82 | 1017.7 |
| 20260503043416 | 47 | 174 | 0.9 | 1.7 | 0.00 | 0.00 | 0.00 | 81 | 1017.7 |
| 20260503042912 | 48 | 186 | 1.7 | 1.7 | 0.00 | 0.00 | 0.00 | 81 | 1017.9 |
| 20260503042409 | 48 | 188 | 1.7 | 1.7 | 0.00 | 0.00 | 0.00 | 81 | 1017.8 |